Regional Weather Roundup
Issued by NWS Little Rock, AR

Home | Current Version | Previous Version | Graphics & Text | Print | Product List | Glossary On
Versions: 1 2 3 4 5 6 7 8 9 10 11 12 13 14 15 16 17 18 19 20 21 22 23 24 25 26 27 28 29 30 31 32 33 34 35 36 37 38 39 40 41 42 43 44 45 46 47 48 49 50
940
ASUS44 KLZK 230405
RWRLZK

WEATHER ROUNDUP FOR ARKANSAS
NATIONAL WEATHER SERVICE LITTLE ROCK AR
1100 PM CDT SAT APR 22 2017

NOTE: "FAIR" INDICATES FEW OR NO CLOUDS BELOW 12,000 FEET WITH NO
SIGNIFICANT WEATHER AND/OR OBSTRUCTIONS TO VISIBILITY.

ARZ001-003-010-029-230500-
NORTHWEST ARKANSAS

CITY           SKY/WX    TMP DP  RH WIND       PRES   REMARKS
FAYETTEVILLE   CLOUDY    47  46  97 CALM      30.10F
FORT SMITH     CLOUDY    52  44  74 NW8       30.11R
HARRISON       CLOUDY    46  45  96 NW3       30.09S
BENTONVILLE    CLOUDY    48  43  81 CALM      30.12S
ROGERS         CLOUDY    47  45  93 CALM      30.12R
SILOAM SPGS    CLOUDY    48  41  76 CALM      30.11F
HIGHFILL       CLOUDY    48  45  89 N5        30.11R
$$

ARZ004-005-016-230500-
NORTH CENTRAL ARKANSAS

CITY           SKY/WX    TMP DP  RH WIND       PRES   REMARKS
BATESVILLE     CLOUDY   N/A N/A N/A NW5       30.04F
FLIPPIN        CLOUDY    48  43  81 NW3       30.05F
MTN HOME       LGT RAIN  47  45  93 CALM      30.05F
$$

ARZ040-041-230500-
WEST CENTRAL ARKANSAS

CITY           SKY/WX    TMP DP  RH WIND       PRES   REMARKS
MENA           CLOUDY    50  50 100 NW6       30.08S
MOUNT IDA      CLOUDY    51  47  86 VRB5      30.03S
$$

ARZ009-017-025-026-028-230500-
NORTHEAST ARKANSAS

CITY           SKY/WX    TMP DP  RH WIND       PRES   REMARKS
CORNING        CLOUDY    50  48  93 N13       30.03S
JONESBORO      CLOUDY    48  47  96 N9        30.00S
NEWPORT        CLOUDY    48  48 100 N15       30.02S
WALNUT RIDGE   CLOUDY    50  45  81 N12       30.02S
BLYTHEVILLE    LGT RAIN  51  51 100 N17       29.97S
$$

ARZ022-023-033-042-044-230500-
CENTRAL ARKANSAS

CITY           SKY/WX    TMP DP  RH WIND       PRES   REMARKS
LITTLE ROCK    CLOUDY    51  48  89 N14       30.03S
N LITTLE ROCK    N/A     50  47  91 N7        30.04S
JACKSONVILLE   CLOUDY    52  47  85 N7        30.03S
CONWAY           N/A     52  48  87 N9        30.04S
SEARCY         CLOUDY    51  48  89 N9        30.05S
HOT SPRINGS    CLOUDY    53  50  89 NW6       30.04S
RUSSELLVILLE   CLOUDY    51  45  79 N6        30.07R
$$

ARZ036-230500-
EAST ARKANSAS

CITY           SKY/WX    TMP DP  RH WIND       PRES   REMARKS
WEST MEMPHIS   CLOUDY    51  51 100 N12G20    29.95F FOG
$$

ARZ050-053-066-070-073-230500-
SOUTHWEST ARKANSAS

CITY           SKY/WX    TMP DP  RH WIND       PRES   REMARKS
ARKADELPHIA    CLOUDY    54  49  83 N9        30.04F
CAMDEN         LGT RAIN  54  48  82 NW12      30.03S
TEXARKANA      CLOUDY    52  44  74 NW12      30.07S
EL DORADO      CLOUDY    54  48  80 NW10      30.02S
DE QUEEN       CLOUDY    51  46  83 NW5       30.07S
$$

ARZ056-057-069-230500-
SOUTHEAST ARKANSAS

CITY           SKY/WX    TMP DP  RH WIND       PRES   REMARKS
PINE BLUFF     CLOUDY    52  50  93 N9        30.01F
STUTTGART      CLOUDY    52  43  71 N15       30.01S
MONTICELLO     CLOUDY    55  50  83 N7        29.99R

$$






USA.gov is the U.S. government's official web portal to all federal, state and local government web resources and services.